DLH6PJ EDDH-EDDF

Flight info

Callsign DLH6PJ
Flight time N/A
Altitude 30000
Route AMLUH2G/33 AMLUH M852 DENIX DCT RIMET/N0386F310 T157 KOKEB/N0335F230 T157 KERAX KERAX5A
Aircraft A20N/M-SDE2E3FGIJ1LORWXYZ/HB1

Departure

Time N/A
Airport Hamburg Helmut Schmidt Airport (EDDH)

Arrival

Time 2026-05-04 18:21
Airport Frankfurt Main Airport (EDDF)
Time Latitude Longitude Altitude Speed Heading
2026-05-04 17:40 53.14987 10.44657 23973 ft 379 kts 174°
2026-05-04 17:40 53.12499 10.45198 23954 ft 374 kts 182°
2026-05-04 17:40 53.09913 10.45223 23953 ft 372 kts 186°
2026-05-04 17:41 53.07328 10.45023 23951 ft 371 kts 188°
2026-05-04 17:41 53.04757 10.44707 23950 ft 370 kts 189°
2026-05-04 17:41 53.02194 10.44337 23951 ft 370 kts 189°
2026-05-04 17:41 52.99629 10.43948 23951 ft 370 kts 190°
2026-05-04 17:42 52.97071 10.43564 23954 ft 370 kts 189°
2026-05-04 17:42 52.94506 10.43188 23948 ft 370 kts 189°
2026-05-04 17:42 52.91936 10.42823 24052 ft 372 kts 189°
2026-05-04 17:42 52.89347 10.42462 24573 ft 374 kts 189°
2026-05-04 17:43 52.86753 10.42106 25225 ft 374 kts 189°
2026-05-04 17:43 52.84156 10.41753 25836 ft 376 kts 190°
2026-05-04 17:43 52.81544 10.41399 26408 ft 378 kts 190°
2026-05-04 17:43 52.78912 10.41041 26947 ft 380 kts 190°
2026-05-04 17:44 52.76273 10.40684 27496 ft 382 kts 190°
2026-05-04 17:44 52.73615 10.40324 28012 ft 384 kts 190°
2026-05-04 17:44 52.70941 10.39962 28511 ft 387 kts 190°
2026-05-04 17:44 52.68246 10.39598 29019 ft 389 kts 190°
2026-05-04 17:45 52.65543 10.39233 29490 ft 392 kts 190°
2026-05-04 17:45 52.62813 10.38865 29876 ft 395 kts 190°
2026-05-04 17:45 52.57316 10.38126 29951 ft 402 kts 190°
2026-05-04 17:46 52.54488 10.37739 29935 ft 414 kts 189°
2026-05-04 17:46 52.51573 10.37341 29952 ft 426 kts 189°
2026-05-04 17:46 52.48578 10.36934 29946 ft 438 kts 189°
2026-05-04 17:46 52.45529 10.36527 29944 ft 441 kts 189°
2026-05-04 17:47 52.39399 10.35723 29944 ft 443 kts 189°
2026-05-04 17:47 52.33257 10.34916 29945 ft 443 kts 189°
2026-05-04 17:48 52.27111 10.34104 29948 ft 444 kts 188°
2026-05-04 17:48 52.20939 10.33287 29946 ft 445 kts 188°
2026-05-04 17:49 52.14766 10.32473 29952 ft 445 kts 188°
2026-05-04 17:49 52.08596 10.31661 29954 ft 445 kts 188°
2026-05-04 17:50 52.02420 10.30850 29961 ft 446 kts 188°
2026-05-04 17:50 51.96237 10.30040 29971 ft 446 kts 188°
2026-05-04 17:51 51.90050 10.29234 29973 ft 447 kts 188°
2026-05-04 17:51 51.83856 10.28425 29966 ft 447 kts 188°
2026-05-04 17:52 51.77645 10.27616 29978 ft 448 kts 188°
2026-05-04 17:52 51.71460 10.26821 29935 ft 436 kts 188°
2026-05-04 17:53 51.68479 10.26446 29681 ft 423 kts 188°
2026-05-04 17:53 51.65580 10.26082 29406 ft 411 kts 188°
2026-05-04 17:53 51.62808 10.25730 29163 ft 400 kts 188°
2026-05-04 17:53 51.60037 10.25377 28924 ft 389 kts 189°
2026-05-04 17:54 51.57372 10.25035 28623 ft 379 kts 189°
2026-05-04 17:54 51.54768 10.24699 28280 ft 373 kts 189°
2026-05-04 17:54 51.52199 10.24366 27865 ft 368 kts 189°
2026-05-04 17:54 51.49689 10.24040 27415 ft 365 kts 189°
2026-05-04 17:55 51.47170 10.23714 26960 ft 362 kts 189°
2026-05-04 17:55 51.44664 10.23390 26501 ft 360 kts 189°
2026-05-04 17:55 51.42150 10.23067 26034 ft 358 kts 188°
2026-05-04 17:55 51.39664 10.22747 25517 ft 358 kts 188°
2026-05-04 17:56 51.37185 10.22429 25005 ft 357 kts 188°
2026-05-04 17:56 51.34706 10.22112 24495 ft 357 kts 188°
2026-05-04 17:56 51.32222 10.21874 24004 ft 358 kts 186°
2026-05-04 17:56 51.29735 10.21760 23517 ft 358 kts 184°
2026-05-04 17:57 51.27252 10.21713 23070 ft 354 kts 184°
2026-05-04 17:57 51.24820 10.21696 22975 ft 346 kts 184°
2026-05-04 17:57 51.22414 10.21681 22976 ft 346 kts 184°
2026-05-04 17:57 51.20004 10.21654 22978 ft 347 kts 184°
2026-05-04 17:58 51.17621 10.21618 22981 ft 347 kts 184°
2026-05-04 17:58 51.15208 10.21574 22980 ft 347 kts 184°
2026-05-04 17:58 51.12801 10.21407 22978 ft 345 kts 190°
2026-05-04 17:58 51.10474 10.20591 22977 ft 342 kts 202°
2026-05-04 17:59 51.08334 10.19012 22980 ft 340 kts 211°
2026-05-04 17:59 51.06299 10.17091 22981 ft 340 kts 213°
2026-05-04 17:59 51.02306 10.13082 22981 ft 340 kts 214°
2026-05-04 18:00 51.00311 10.11061 22980 ft 339 kts 214°
2026-05-04 18:00 50.98326 10.09049 22631 ft 338 kts 214°
2026-05-04 18:00 50.96348 10.07046 22152 ft 336 kts 214°
2026-05-04 18:00 50.94387 10.05062 21707 ft 333 kts 214°
2026-05-04 18:01 50.92437 10.03091 21228 ft 331 kts 214°
2026-05-04 18:01 50.90505 10.01140 20773 ft 329 kts 214°
2026-05-04 18:01 50.88586 9.99204 20352 ft 326 kts 214°
2026-05-04 18:02 50.84787 9.95376 19453 ft 321 kts 213°
2026-05-04 18:02 50.82905 9.93482 19027 ft 319 kts 213°
2026-05-04 18:02 50.81039 9.91606 18602 ft 317 kts 213°
2026-05-04 18:02 50.79181 9.89741 18149 ft 315 kts 213°
2026-05-04 18:03 50.77331 9.87885 17652 ft 314 kts 213°
2026-05-04 18:03 50.75492 9.86041 17143 ft 313 kts 213°
2026-05-04 18:03 50.73658 9.84205 16648 ft 312 kts 213°
2026-05-04 18:03 50.71829 9.82375 16193 ft 310 kts 213°
2026-05-04 18:04 50.70019 9.80566 15757 ft 308 kts 213°
2026-05-04 18:04 50.68211 9.78761 15300 ft 306 kts 212°
2026-05-04 18:04 50.64640 9.75200 14421 ft 302 kts 212°
2026-05-04 18:05 50.62869 9.73437 13990 ft 301 kts 212°
2026-05-04 18:05 50.61106 9.71682 13533 ft 299 kts 212°
2026-05-04 18:05 50.59352 9.69939 13074 ft 296 kts 212°
2026-05-04 18:05 50.57620 9.68218 12637 ft 294 kts 212°
2026-05-04 18:06 50.54191 9.64818 11789 ft 288 kts 211°
2026-05-04 18:06 50.52500 9.63143 11366 ft 286 kts 211°
2026-05-04 18:06 50.50872 9.61371 10961 ft 284 kts 219°
2026-05-04 18:07 50.49457 9.59212 10548 ft 283 kts 225°
2026-05-04 18:07 50.48155 9.56966 10157 ft 281 kts 227°
2026-05-04 18:07 50.46886 9.54687 9895 ft 274 kts 227°
2026-05-04 18:07 50.45651 9.52445 9484 ft 270 kts 227°
2026-05-04 18:08 50.44428 9.50216 9066 ft 269 kts 227°
2026-05-04 18:08 50.43211 9.47989 8585 ft 268 kts 228°
2026-05-04 18:08 50.42000 9.45772 8166 ft 268 kts 228°
2026-05-04 18:08 50.40787 9.43552 7721 ft 267 kts 228°
2026-05-04 18:09 50.38378 9.39143 7012 ft 265 kts 228°
2026-05-04 18:09 50.35975 9.34749 6974 ft 267 kts 228°
2026-05-04 18:10 50.34767 9.32543 6971 ft 267 kts 228°
2026-05-04 18:10 50.33559 9.30339 6972 ft 267 kts 228°
2026-05-04 18:10 50.32351 9.28136 6971 ft 266 kts 229°
2026-05-04 18:10 50.31144 9.25940 6973 ft 267 kts 229°
2026-05-04 18:11 50.29935 9.23738 6976 ft 266 kts 228°
2026-05-04 18:11 50.28731 9.21548 6981 ft 264 kts 228°
2026-05-04 18:11 50.27539 9.19382 6972 ft 263 kts 228°
2026-05-04 18:11 50.26344 9.17213 6970 ft 264 kts 228°
2026-05-04 18:12 50.25146 9.15040 6947 ft 263 kts 227°
2026-05-04 18:12 50.23949 9.12871 6578 ft 263 kts 227°
2026-05-04 18:12 50.22758 9.10715 6156 ft 262 kts 228°
2026-05-04 18:12 50.21569 9.08565 5985 ft 262 kts 228°
2026-05-04 18:13 50.20376 9.06410 5992 ft 263 kts 228°
2026-05-04 18:13 50.19177 9.04245 6000 ft 264 kts 228°
2026-05-04 18:13 50.16793 8.99942 5993 ft 253 kts 227°
2026-05-04 18:14 50.15680 8.97933 5988 ft 236 kts 228°
2026-05-04 18:14 50.14782 8.95879 5986 ft 223 kts 241°
2026-05-04 18:14 50.14198 8.93717 5985 ft 211 kts 247°
2026-05-04 18:15 50.13235 8.89590 5734 ft 193 kts 247°
2026-05-04 18:15 50.12303 8.85705 5045 ft 191 kts 248°
2026-05-04 18:15 50.11846 8.83790 4715 ft 191 kts 248°
2026-05-04 18:16 50.11386 8.81861 4385 ft 188 kts 249°
2026-05-04 18:16 50.10940 8.79990 4126 ft 180 kts 249°
2026-05-04 18:16 50.10522 8.78237 3905 ft 167 kts 249°
2026-05-04 18:17 50.09753 8.75016 3446 ft 150 kts 249°
2026-05-04 18:17 50.09399 8.73532 3236 ft 142 kts 250°
2026-05-04 18:17 50.08748 8.70806 2865 ft 131 kts 250°
2026-05-04 18:18 50.08534 8.69910 2742 ft 131 kts 251°
2026-05-04 18:18 50.08217 8.68583 2553 ft 130 kts 252°
2026-05-04 18:18 50.07902 8.67264 2372 ft 130 kts 252°
2026-05-04 18:18 50.07587 8.65943 2183 ft 130 kts 252°
2026-05-04 18:19 50.06955 8.63301 1809 ft 130 kts 252°
2026-05-04 18:19 50.06645 8.62004 1633 ft 129 kts 252°
2026-05-04 18:19 50.06332 8.60693 1443 ft 129 kts 253°
2026-05-04 18:20 50.06017 8.59375 1259 ft 129 kts 253°
2026-05-04 18:20 50.05713 8.58100 1077 ft 127 kts 252°
2026-05-04 18:20 50.05407 8.56812 909 ft 127 kts 252°
2026-05-04 18:20 50.05098 8.55525 690 ft 126 kts 250°
2026-05-04 18:21 50.04787 8.54254 517 ft 125 kts 252°
2026-05-04 18:21 50.04486 8.52973 365 ft 123 kts 252°
2026-05-04 18:21 50.04230 8.51879 342 ft 84 kts 248°
2026-05-04 18:21 50.04088 8.51291 330 ft 38 kts 248°
2026-05-04 18:22 50.03962 8.50988 330 ft 24 kts 223°
2026-05-04 18:22 50.03852 8.50846 328 ft 15 kts 215°
2026-05-04 18:22 50.03777 8.50874 328 ft 12 kts 113°
2026-05-04 18:22 50.03796 8.50986 328 ft 10 kts 67°
2026-05-04 18:23 50.03820 8.51083 331 ft 9 kts 70°
2026-05-04 18:23 50.03841 8.51175 330 ft 9 kts 70°
2026-05-04 18:23 50.03864 8.51271 331 ft 11 kts 70°
2026-05-04 18:23 50.03893 8.51397 334 ft 14 kts 70°
2026-05-04 18:24 50.03929 8.51547 333 ft 15 kts 69°
2026-05-04 18:24 50.03965 8.51694 336 ft 14 kts 69°
2026-05-04 18:24 50.04000 8.51838 346 ft 14 kts 69°
2026-05-04 18:24 50.04035 8.51980 347 ft 14 kts 70°
2026-05-04 18:25 50.04068 8.52125 352 ft 14 kts 70°
2026-05-04 18:25 50.04102 8.52269 347 ft 14 kts 70°
2026-05-04 18:25 50.04135 8.52411 345 ft 14 kts 70°
2026-05-04 18:25 50.04169 8.52552 354 ft 14 kts 69°
2026-05-04 18:26 50.04204 8.52691 349 ft 14 kts 68°
2026-05-04 18:26 50.04238 8.52828 350 ft 13 kts 69°
2026-05-04 18:26 50.04268 8.52951 353 ft 11 kts 70°
2026-05-04 18:26 50.04292 8.53056 358 ft 9 kts 70°
2026-05-04 18:27 50.04312 8.53143 357 ft 8 kts 70°
2026-05-04 18:27 50.04334 8.53239 361 ft 10 kts 70°
2026-05-04 18:27 50.04361 8.53354 363 ft 13 kts 70°
2026-05-04 18:27 50.04394 8.53498 366 ft 16 kts 73°
2026-05-04 18:28 50.04407 8.53683 364 ft 18 kts 87°
2026-05-04 18:28 50.04417 8.53879 362 ft 19 kts 84°
2026-05-04 18:28 50.04431 8.54083 367 ft 19 kts 83°
2026-05-04 18:28 50.04446 8.54295 367 ft 20 kts 84°
2026-05-04 18:29 50.04450 8.54516 364 ft 21 kts 102°
2026-05-04 18:29 50.04376 8.54709 367 ft 21 kts 137°
2026-05-04 18:29 50.04244 8.54816 363 ft 22 kts 162°
2026-05-04 18:29 50.04107 8.54889 362 ft 14 kts 160°
2026-05-04 18:30 50.04074 8.54907 361 ft 2 kts 160°
2026-05-04 18:30 50.04059 8.54915 363 ft 3 kts 160°
2026-05-04 18:30 50.04030 8.54931 363 ft 8 kts 160°
2026-05-04 18:31 50.03956 8.54972 362 ft 15 kts 160°
2026-05-04 18:31 50.03855 8.55046 367 ft 16 kts 129°
2026-05-04 18:31 50.03870 8.55204 366 ft 16 kts 70°
2026-05-04 18:31 50.03909 8.55369 361 ft 17 kts 69°
2026-05-04 18:32 50.03951 8.55542 362 ft 18 kts 69°
2026-05-04 18:32 50.03995 8.55725 363 ft 18 kts 70°
2026-05-04 18:32 50.04039 8.55911 365 ft 13 kts 69°
2026-05-04 18:32 50.04100 8.55974 365 ft 11 kts 337°
2026-05-04 18:33 50.04173 8.55926 364 ft 12 kts 340°
2026-05-04 18:33 50.04246 8.55947 366 ft 12 kts 35°
2026-05-04 18:33 50.04319 8.55944 365 ft 11 kts 340°
2026-05-04 18:33 50.04367 8.55917 365 ft 4 kts 340°
2026-05-04 18:34 50.04395 8.55904 363 ft 4 kts 350°
2026-05-04 18:34 50.04432 8.55906 365 ft 7 kts 10°
2026-05-04 18:34 50.04475 8.55931 364 ft 7 kts 21°
2026-05-04 18:34 50.04524 8.55960 365 ft 8 kts 21°
2026-05-04 18:35 50.04553 8.55977 368 ft 0 kts 21°
2026-05-04 18:35 50.04559 8.55981 366 ft 1 kts 19°
2026-05-04 18:35 50.04573 8.55985 365 ft 4 kts
2026-05-04 18:35 50.04601 8.55970 365 ft 4 kts 336°
2026-05-04 18:36 50.04630 8.55950 364 ft 5 kts 338°
2026-05-04 18:36 50.04652 8.55937 365 ft 0 kts 339°
2026-05-04 18:36 50.04653 8.55937 365 ft 0 kts 339°